| time (UTC) | temp C | wind direction | speed KPH | gust KPH | rain 1hr cm | rain 24hr cm | rain mn cm | humidity % | barometer mb |
| 20260505124552 | 12 | 178 | 3.2 | 11.3 | 0.00 | 0.66 | 0.66 | 97 | 1005.9 |
| 20260505123053 | 12 | 185 | 3.2 | 11.3 | 0.00 | 0.66 | 0.66 | 97 | 1005.8 |
| 20260505121549 | 12 | 160 | 4.8 | 12.9 | 0.03 | 0.66 | 0.66 | 97 | 1006.0 |
| 20260505120051 | 12 | 170 | 4.8 | 12.9 | 0.05 | 0.66 | 0.66 | 97 | 1006.3 |
| 20260505114546 | 12 | 160 | 4.8 | 11.3 | 0.08 | 0.66 | 0.66 | 97 | 1006.4 |
| 20260505113051 | 12 | 210 | 3.2 | 9.7 | 0.08 | 0.66 | 0.66 | 97 | 1006.8 |
| 20260505111544 | 12 | 173 | 3.2 | 11.3 | 0.08 | 0.64 | 0.64 | 97 | 1006.5 |
| 20260505101557 | 12 | 176 | 4.8 | 11.3 | 0.25 | 0.56 | 0.56 | 96 | 1005.7 |
| 20260505100057 | 12 | 170 | 3.2 | 8.0 | 0.41 | 0.56 | 0.56 | 95 | 1006.4 |
| 20260505094535 | 12 | 165 | 1.6 | 6.4 | 0.51 | 0.53 | 0.53 | 94 | 1006.6 |
| 20260505093033 | 12 | 241 | 1.6 | 11.3 | 0.46 | 0.46 | 0.46 | 93 | 1007.3 |
| 20260505091530 | 13 | 338 | 8.0 | 20.9 | 0.30 | 0.30 | 0.30 | 92 | 1007.6 |
| 20260505090028 | 13 | 302 | 8.0 | 17.7 | 0.15 | 0.15 | 0.15 | 91 | 1007.5 |
| 20260505084524 | 14 | 343 | 9.7 | 19.3 | 0.03 | 0.03 | 0.03 | 88 | 1007.0 |
| 20260505083023 | 15 | 320 | 17.7 | 22.5 | 0.00 | 0.00 | 0.00 | 82 | 1006.5 |
| 20260505081515 | 16 | 334 | 14.5 | 27.4 | 0.00 | 0.00 | 0.00 | 77 | 1006.0 |
| 20260505080011 | 17 | 299 | 3.2 | 9.7 | 0.00 | 0.00 | 0.00 | 73 | 1004.9 |
| 20260505074511 | 17 | 185 | 3.2 | 8.0 | 0.00 | 0.00 | 0.00 | 69 | 1004.2 |
| 20260505073019 | 17 | 301 | 3.2 | 14.5 | 0.00 | 0.00 | 0.00 | 68 | 1005.0 |
| 20260505071503 | 18 | 265 | 3.2 | 11.3 | 0.00 | 0.00 | 0.00 | 65 | 1004.7 |
| 20260505070002 | 18 | 239 | 6.4 | 11.3 | 0.00 | 0.00 | 0.00 | 64 | 1004.5 |
| 20260505064557 | 18 | 214 | 4.8 | 14.5 | 0.00 | 0.00 | 0.00 | 63 | 1004.7 |
| 20260505063106 | 18 | 224 | 8.0 | 19.3 | 0.00 | 0.00 | 0.00 | 63 | 1004.4 |
| 20260505061552 | 18 | 207 | 11.3 | 30.6 | 0.00 | 0.00 | 0.00 | 63 | 1004.2 |
| 20260505060051 | 18 | 200 | 11.3 | 35.4 | 0.00 | 0.00 | 0.00 | 62 | 1004.1 |
| 20260505054549 | 18 | 193 | 14.5 | 29.0 | 0.00 | 0.00 | 0.00 | 62 | 1004.1 |
| 20260505053047 | 18 | 237 | 9.7 | 30.6 | 0.00 | 0.00 | 0.00 | 61 | 1003.7 |
| 20260505051543 | 18 | 224 | 12.9 | 25.7 | 0.00 | 0.00 | 0.00 | 61 | 1003.3 |
| 20260505041533 | 19 | 161 | 12.9 | 22.5 | 0.00 | 0.00 | 0.00 | 60 | 1003.5 |
| 20260505040031 | 20 | 220 | 16.1 | 30.6 | 0.00 | 0.00 | 0.00 | 59 | 1004.0 |
| 20260505034530 | 20 | 222 | 11.3 | 33.8 | 0.00 | 0.00 | 0.00 | 59 | 1004.1 |
| 20260505033030 | 20 | 246 | 12.9 | 24.1 | 0.00 | 0.00 | 0.00 | 60 | 1004.3 |
| 20260505031537 | 19 | 219 | 9.7 | 19.3 | 0.00 | 0.00 | 0.00 | 61 | 1004.6 |
| 20260505030029 | 19 | 239 | 12.9 | 24.1 | 0.00 | 0.00 | 0.00 | 61 | 1004.4 |
| 20260505024528 | 19 | 222 | 11.3 | 17.7 | 0.00 | 0.00 | 0.00 | 63 | 1004.2 |
| 20260505023027 | 19 | 196 | 6.4 | 20.9 | 0.00 | 0.00 | 0.00 | 63 | 1004.0 |
| 20260505021532 | 19 | 221 | 8.0 | 22.5 | 0.00 | 0.00 | 0.00 | 64 | 1003.8 |
| 20260505020030 | 19 | 224 | 1.6 | 16.1 | 0.00 | 0.00 | 0.00 | 63 | 1003.5 |
| 20260505014525 | 20 | 180 | 3.2 | 14.5 | 0.00 | 0.00 | 0.00 | 62 | 1003.2 |
| 20260505013029 | 20 | 184 | 6.4 | 17.7 | 0.00 | 0.00 | 0.00 | 61 | 1002.9 |
| 20260505011532 | 20 | 196 | 6.4 | 19.3 | 0.00 | 0.00 | 0.00 | 60 | 1002.8 |
| 20260505010036 | 20 | 224 | 4.8 | 14.5 | 0.00 | 0.00 | 0.00 | 58 | 1002.7 |
| 20260505004521 | 21 | 180 | 3.2 | 12.9 | 0.00 | 0.00 | 0.00 | 57 | 1002.9 |
| 20260505003020 | 21 | 220 | 6.4 | 17.7 | 0.00 | 0.00 | 0.00 | 55 | 1002.9 |
| 20260505001520 | 21 | 248 | 11.3 | 29.0 | 0.00 | 0.00 | 0.00 | 55 | 1002.9 |
| 20260505000032 | 22 | 259 | 4.8 | 16.1 | 0.00 | 0.00 | 0.00 | 57 | 1003.1 |
| 20260504234518 | 22 | 214 | 6.4 | 16.1 | 0.00 | 0.00 | 0.00 | 58 | 1003.2 |
| 20260504233016 | 22 | 219 | 8.0 | 19.3 | 0.00 | 0.00 | 0.00 | 57 | 1003.4 |
| 20260504231515 | 22 | 228 | 9.7 | 19.3 | 0.00 | 0.00 | 0.00 | 56 | 1003.6 |
| 20260504230013 | 23 | 217 | 11.3 | 22.5 | 0.00 | 0.00 | 0.00 | 55 | 1003.9 |
| 20260504224511 | 22 | 210 | 9.7 | 25.7 | 0.00 | 0.00 | 0.00 | 54 | 1004.1 |
| 20260504223012 | 23 | 214 | 14.5 | 29.0 | 0.00 | 0.00 | 0.00 | 52 | 1004.2 |
| 20260504221613 | 23 | 241 | 8.0 | 27.4 | 0.00 | 0.00 | 0.00 | 52 | 1004.5 |
| 20260504220008 | 23 | 195 | 17.7 | 45.1 | 0.00 | 0.00 | 0.00 | 52 | 1004.4 |
| 20260504214505 | 23 | 207 | 8.0 | 19.3 | 0.00 | 0.00 | 0.00 | 56 | 1004.4 |
| 20260504213004 | 23 | 201 | 9.7 | 12.9 | 0.00 | 0.00 | 0.00 | 56 | 1004.4 |
| 20260504211501 | 22 | 208 | 3.2 | 16.1 | 0.00 | 0.00 | 0.00 | 56 | 1004.5 |
| 20260504210101 | 23 | 263 | 4.8 | 14.5 | 0.00 | 0.00 | 0.00 | 56 | 1005.1 |
| 20260504204604 | 22 | 220 | 3.2 | 19.3 | 0.00 | 0.00 | 0.00 | 57 | 1005.5 |
| 20260504203054 | 22 | 250 | 9.7 | 19.3 | 0.00 | 0.00 | 0.00 | 57 | 1005.7 |
| 20260504201552 | 21 | 210 | 17.7 | 30.6 | 0.00 | 0.00 | 0.00 | 58 | 1005.8 |
| 20260504200047 | 21 | 206 | 12.9 | 22.5 | 0.00 | 0.00 | 0.00 | 59 | 1006.0 |
| 20260504194549 | 20 | 264 | 6.4 | 17.7 | 0.00 | 0.00 | 0.00 | 66 | 1006.2 |
| 20260504193041 | 20 | 235 | 9.7 | 22.5 | 0.00 | 0.00 | 0.00 | 68 | 1006.3 |
| 20260504191541 | 19 | 237 | 9.7 | 19.3 | 0.00 | 0.00 | 0.00 | 72 | 1006.5 |
| 20260504190039 | 18 | 219 | 6.4 | 12.9 | 0.00 | 0.00 | 0.00 | 77 | 1006.9 |
| 20260504184538 | 17 | 175 | 1.6 | 8.0 | 0.00 | 0.00 | 0.00 | 77 | 1006.8 |
| 20260504183041 | 17 | 244 | 4.8 | 9.7 | 0.00 | 0.00 | 0.00 | 74 | 1007.2 |
| 20260504181539 | 18 | 201 | 4.8 | 22.5 | 0.00 | 0.00 | 0.00 | 72 | 1007.0 |
| 20260504180045 | 18 | 224 | 9.7 | 19.3 | 0.00 | 0.00 | 0.00 | 69 | 1007.1 |
| 20260504174536 | 18 | 261 | 12.9 | 29.0 | 0.00 | 0.00 | 0.00 | 68 | 1007.1 |
| 20260504173035 | 18 | 243 | 12.9 | 32.2 | 0.00 | 0.00 | 0.00 | 68 | 1006.7 |
| 20260504171535 | 19 | 241 | 14.5 | 30.6 | 0.00 | 0.00 | 0.00 | 66 | 1006.6 |